This is the latest recevied weather packets stored in our database for station/object KG4YZY-1. If no packets are shown the sender has not sent any weather packets the latest 10 day(s).
| Time | Temp. | Humidity | Pressure | Rain* | Wind** | Luminosity | Snow |
|---|---|---|---|---|---|---|---|
| 1788042604 | 24.44° C | 89% | 1019.6 hPa | 0.51 mm | - | - | - |
| 1788042303 | 24.44° C | 89% | 1019.2 hPa | 1.52 mm | - | - | - |
| 1788042004 | 23.89° C | 88% | 1018.3 hPa | 2.29 mm | - | - | - |
| 1788041704 | 23.89° C | 88% | 1017.9 hPa | 3.05 mm | - | - | - |
| 1788041403 | 24.44° C | 89% | 1018.2 hPa | 3.05 mm | - | - | - |
| 1788041104 | 24.44° C | 89% | 1018.2 hPa | 3.05 mm | - | - | - |
| 1788040804 | 24.44° C | 89% | 1017.9 hPa | 3.05 mm | - | - | - |
| 1788040504 | 24.44° C | 88% | 1017.9 hPa | 3.05 mm | - | - | - |
| 1788040203 | 24.44° C | 87% | 1017.9 hPa | 3.05 mm | - | - | - |
| 1788039904 | 25° C | 86% | 1018 hPa | 3.05 mm | - | - | - |
| 1788039603 | 25° C | 85% | 1018.2 hPa | 3.05 mm | - | - | - |
| 1788039303 | 25.56° C | 83% | 1018.5 hPa | 3.05 mm | - | - | - |
| 1788039003 | 25.56° C | 82% | 1018.7 hPa | 2.54 mm | - | - | - |
| 1788038703 | 26.67° C | 79% | 1018.4 hPa | 1.52 mm | - | - | - |
| 1788038403 | 27.22° C | 76% | 1018.3 hPa | 0.76 mm | - | - | - |
| 1788038103 | 28.33° C | 72% | 1018.4 hPa | 0.25 mm | - | - | - |
| 1788037803 | 29.44° C | 69% | 1018.4 hPa | 0.25 mm | - | - | - |
| 1788037504 | 31.11° C | 72% | 1018.6 hPa | 0.25 mm | - | - | - |
| 1788037203 | 31.11° C | 76% | 1018.3 hPa | 0.25 mm | - | - | - |
| 1788036904 | 31.11° C | 75% | 1018.1 hPa | 0.25 mm | - | - | - |
| 1788036604 | 31.11° C | 76% | 1018.1 hPa | 0.25 mm | - | - | - |
| 1788036304 | 30.56° C | 79% | 1017.9 hPa | 0.25 mm | - | - | - |
| 1788036003 | 30.56° C | 79% | 1017.8 hPa | 0.25 mm | - | - | - |
| 1788035703 | 30.56° C | 79% | 1017.9 hPa | 0.25 mm | - | - | - |
| 1788035403 | 30.56° C | 79% | 1018 hPa | 0.25 mm | - | - | - |
* Rain latest hour (hover to see other rain measurements)
** Current wind speed in m/s (hover to see current wind gust speed)